Location: Unspecified
(0.0000°N, 0.0000°E)
Time: 18:16:14
(UTC+00:00)

Vanguard 1 - Pass Details

Date: 08 October 2020
Orbit: 650 x 3833 km, 34.3° (Epoch: 26 October)

Event Time Altitude Azimuth Distance (km) Brightness Sun altitude
Rises 06:40:49 0° 241° (WSW) 4,517 13.0 13.3°
Reaches altitude 10° 06:45:36 10° 218° (SW) 4,117 13.0 14.4°
Maximum altitude 06:51:21 15° 187° (S) 4,392 13.5 15.9°
Drops below altitude 10° 06:58:47 10° 158° (SSE) 5,536 14.4 17.7°
Sets 07:07:52 0° 138° (SE) 7,285 15.3 20.0°
